Theta_e
334 333 333 333 333 332 331 331 332 332 332 332 331 330 327 326 326 326 323 318 313 309 307 305 305 305 307 310 313 316 319 321 322 323 323 322 320 320 321 322 320 318 317 313 311 312 313 313 313 314 314 314 315 315 316 317 318 319 319 319 320 321 323 324 325 325 326 326 326 326 325 325 326 325 325 325 323 321 318 316 315 315 317 318 317
331 331 332 333 334 334 333 333 333 333 333 333 333 332 331 328 328 329 329 326 321 315 311 308 306 306 305 307 310 313 316 318 319 320 319 318 317 317 318 318 317 316 314 312 311 312 312 313 313 314 315 315 315 315 315 316 317 318 319 320 322 324 325 325 325 326 327 327 327 326 326 326 325 325 324 322 320 317 315 314 315 317 317 315 311
329 329 329 331 333 333 334 334 334 334 334 333 333 334 333 331 329 329 330 330 326 319 314 312 309 307 306 305 307 309 311 312 313 314 314 314 314 314 315 315 314 313 312 311 312 312 314 315 316 317 318 319 318 318 317 317 318 319 320 322 325 326 326 326 326 327 328 328 328 327 327 325 324 322 321 319 317 317 317 317 317 317 313 308 305
325 326 328 329 330 331 332 333 334 335 335 334 334 334 334 333 331 330 330 331 329 322 316 316 313 310 309 308 308 308 307 308 308 309 310 311 312 311 311 312 312 311 312 313 314 315 316 317 319 320 321 323 323 323 322 321 320 321 323 326 327 326 326 327 327 328 328 328 328 327 325 322 320 319 319 319 319 318 317 316 314 311 308 305 306
320 321 324 326 327 328 330 332 333 333 334 335 335 335 335 335 333 331 331 331 330 325 318 317 317 315 315 314 313 313 312 311 311 311 311 311 311 311 311 312 312 313 314 315 316 317 318 319 321 323 325 326 327 327 326 325 324 325 326 327 326 325 326 326 327 327 327 327 326 323 320 318 318 320 321 321 318 315 313 311 310 309 307 307 307
320 318 318 321 324 327 329 330 332 332 332 334 335 335 335 335 334 333 332 332 331 327 320 317 318 317 317 317 317 317 316 316 316 316 315 315 315 315 315 315 315 316 316 317 318 319 320 322 324 326 327 328 328 328 327 327 326 326 326 326 325 325 326 325 324 324 323 322 320 318 318 319 321 322 321 317 313 310 310 309 310 311 311 310 309
326 324 321 319 320 322 326 330 331 331 332 333 333 334 334 334 335 334 333 332 332 328 322 321 321 320 319 319 318 318 317 317 318 318 317 317 316 316 317 317 318 318 318 318 319 321 323 325 326 327 328 329 329 328 328 327 326 325 325 325 325 325 324 322 319 318 318 317 318 320 321 323 324 322 317 313 311 310 310 310 310 312 311 310 308
330 330 328 326 324 322 322 326 330 330 330 331 330 331 332 334 334 333 333 332 331 329 325 325 325 323 322 321 321 320 318 318 317 317 318 317 317 317 317 318 319 319 319 320 321 323 325 326 327 328 328 329 329 329 328 327 326 325 324 323 324 324 321 318 317 318 320 321 323 324 324 323 322 318 315 312 311 310 309 309 309 309 309 307 306
326 326 328 327 325 325 323 323 326 326 326 325 325 329 332 333 333 333 332 331 331 330 328 328 327 325 324 322 322 322 321 321 319 318 318 317 317 317 317 318 319 320 320 322 323 325 326 327 327 327 327 328 328 329 329 328 327 325 324 323 323 323 319 316 319 322 323 324 325 324 323 321 318 316 314 312 310 309 309 310 309 308 307 306 305
321 321 325 327 324 324 324 323 324 323 321 319 322 329 331 333 334 333 332 330 330 331 330 330 329 325 323 323 322 322 322 322 321 321 319 318 318 317 316 317 318 319 321 323 324 325 325 325 325 325 326 327 328 328 329 329 327 325 324 324 324 322 317 317 321 323 324 325 325 324 323 321 319 317 314 311 310 310 310 309 308 306 306 305 305
322 319 321 326 327 323 321 322 324 321 317 319 326 331 332 334 335 333 332 330 329 331 332 331 330 327 325 325 324 323 322 322 323 322 321 320 319 318 317 317 318 319 321 323 324 324 323 323 323 323 325 326 327 328 329 329 328 326 324 324 324 322 318 319 323 324 325 325 324 323 323 322 321 317 313 311 311 310 309 308 306 305 305 305 305
324 324 320 320 324 321 317 319 321 319 320 325 329 332 333 334 334 334 332 330 330 331 332 332 331 329 328 327 326 324 323 323 324 323 323 322 322 320 318 318 319 320 322 323 323 323 322 322 322 322 324 326 328 328 328 329 328 327 325 324 324 323 320 320 322 323 324 324 323 323 322 323 321 316 312 311 309 308 307 306 305 305 305 304 304
326 329 323 321 324 322 320 321 323 325 328 330 332 333 334 333 334 333 330 331 330 328 329 332 332 330 328 328 327 325 324 324 324 324 325 324 323 322 319 318 318 319 321 322 323 323 322 321 321 322 325 327 327 328 328 328 328 328 328 326 325 324 321 320 322 323 323 323 323 323 322 322 320 316 311 309 307 307 306 305 304 304 304 304 304
326 328 327 328 330 328 328 329 329 331 332 332 333 334 334 333 333 332 330 331 331 327 328 331 331 330 329 327 327 326 325 324 325 326 326 325 324 323 321 318 317 318 319 321 322 321 321 319 319 322 325 327 327 328 328 328 328 329 329 328 326 324 322 321 322 323 323 323 323 323 323 322 318 314 310 307 306 305 305 304 304 304 304 303 303
322 324 325 328 329 330 331 331 331 332 333 333 333 333 333 332 332 332 331 331 331 330 330 330 330 330 328 328 327 326 324 324 324 326 325 324 323 322 320 318 316 316 317 318 318 318 318 318 319 321 324 327 328 328 328 329 329 328 328 328 325 323 323 323 323 323 323 323 323 323 321 318 314 310 308 306 305 304 304 303 303 303 303 303 303
320 320 321 322 324 325 326 325 325 328 331 333 333 332 333 332 332 332 332 331 331 331 328 327 328 328 329 328 327 327 325 323 324 325 324 323 322 321 319 318 316 316 317 318 319 319 321 322 323 324 325 327 328 328 328 329 329 328 328 327 324 323 323 323 323 323 323 323 322 321 317 314 310 308 306 305 304 303 303 302 302 301 302 302 302
321 320 320 320 321 321 321 320 320 322 325 329 331 331 331 331 331 332 332 331 330 330 328 326 326 326 327 328 327 327 325 324 324 324 324 323 323 322 321 320 320 320 321 323 323 324 324 325 326 327 327 327 327 328 328 327 328 329 328 326 325 323 323 323 323 323 322 322 320 317 313 310 308 306 305 303 303 302 302 301 300 300 300 301 301
324 323 322 322 322 320 320 320 320 319 321 324 326 326 325 326 328 329 330 331 330 329 328 326 326 324 325 326 327 327 325 325 324 323 323 323 322 322 322 322 323 323 324 324 324 324 324 324 325 326 327 327 327 327 327 327 328 328 327 325 324 323 323 323 323 322 320 317 315 312 310 308 307 305 303 302 302 301 300 300 299 300 300 301 301
323 325 325 325 325 323 320 319 320 319 320 321 323 322 321 323 323 323 326 330 330 330 330 328 328 327 326 325 326 327 326 325 325 323 322 322 322 322 322 322 322 322 322 322 322 321 321 321 322 324 326 326 326 326 326 327 327 326 325 324 323 322 321 319 319 317 315 313 311 309 308 307 305 304 303 302 302 301 302 302 302 302 302 301 300
321 323 322 322 325 326 323 321 320 319 319 320 321 322 322 322 320 319 321 324 325 326 327 327 327 327 327 327 326 327 326 325 325 324 322 322 322 322 322 322 321 321 321 321 320 321 322 322 322 323 324 324 324 325 325 325 325 324 322 321 319 317 316 315 314 312 311 310 309 308 307 305 304 304 303 303 303 304 305 305 304 303 301 299 298
320 321 321 320 322 325 325 324 323 320 320 319 319 321 322 320 318 318 318 319 319 320 320 321 321 320 322 326 327 327 327 325 324 323 322 321 322 321 321 321 321 321 321 321 321 322 323 323 323 323 323 322 322 322 322 322 321 319 317 315 313 312 312 312 311 310 309 309 309 308 307 306 305 305 306 306 306 307 306 304 302 300 298 297 296
319 319 320 320 321 321 323 325 325 323 322 321 321 321 320 319 318 317 317 318 318 317 317 318 318 317 319 323 327 327 326 324 323 322 322 322 322 321 321 320 320 321 320 321 321 321 321 321 321 321 320 320 319 319 318 318 318 316 315 313 312 311 311 310 310 310 309 309 310 309 309 308 308 308 308 307 307 306 303 301 299 297 295 295 294
318 318 319 320 320 320 321 323 323 323 324 323 324 323 321 319 318 317 317 318 317 316 316 317 317 318 320 322 322 322 320 320 322 322 321 322 321 321 320 320 320 320 319 319 319 319 318 318 318 318 317 317 316 316 315 315 315 315 314 313 312 312 312 311 310 310 310 310 309 310 310 309 309 308 308 306 304 301 298 296 295 294 294 293 293
315 317 319 320 319 320 320 319 320 322 325 325 326 326 323 319 318 317 317 317 316 316 316 316 315 316 320 320 317 316 316 316 320 322 322 321 320 319 319 319 319 317 316 316 316 315 315 315 315 314 314 314 314 314 314 314 314 313 313 313 312 313 313 312 311 310 310 309 309 309 309 308 308 307 306 303 300 297 295 294 293 293 293 293 293
309 312 316 318 319 319 318 318 319 320 322 323 325 327 324 320 319 318 316 316 315 316 316 315 314 314 318 320 317 316 316 316 318 320 320 320 318 317 317 317 315 314 313 313 313 312 312 312 312 312 312 312 313 313 313 312 312 312 312 312 312 312 312 311 310 310 309 308 307 307 306 306 304 302 300 297 295 293 293 293 292 292 292 292 292
305 306 309 312 315 317 318 318 318 318 320 321 323 326 325 322 321 320 318 318 317 316 316 315 314 313 316 318 318 318 318 317 317 317 319 318 315 314 314 313 312 311 311 311 310 310 311 311 311 311 311 311 311 311 311 311 311 311 311 310 310 310 309 309 309 308 307 306 304 302 300 299 298 296 294 293 292 292 292 291 291 291 291 291 291
304 304 305 307 309 312 315 317 318 318 319 319 321 324 325 323 323 322 320 319 318 317 315 315 314 313 313 316 317 318 318 317 317 316 317 317 315 313 314 313 311 310 310 311 310 310 310 310 310 310 310 310 310 310 310 310 309 309 309 308 308 307 307 306 305 303 302 300 298 296 294 293 293 292 292 291 291 291 291 291 290 290 290 290 290
304 304 304 305 306 308 310 313 316 318 319 320 322 323 324 324 324 323 321 320 319 318 317 315 315 315 314 314 316 317 317 316 316 316 316 315 315 314 314 314 313 311 310 310 309 309 309 309 309 309 309 309 308 308 308 308 307 307 306 306 305 304 303 302 300 298 296 294 293 292 292 291 291 291 291 290 290 290 290 290 290 290 290 290 290
304 304 304 304 305 307 308 310 313 316 318 320 322 322 322 322 323 323 322 321 321 320 319 318 318 318 317 316 317 317 316 315 315 316 315 315 314 313 313 313 312 312 311 310 309 309 309 309 308 308 307 307 307 307 306 306 305 305 304 304 303 301 300 298 296 294 293 292 291 291 291 291 290 290 290 290 290 290 290 290 290 290 290 290 290
303 304 304 305 305 305 306 308 310 313 316 318 320 320 321 321 322 322 321 321 321 321 320 320 320 320 318 318 318 317 315 314 315 315 314 314 313 313 312 312 312 312 312 311 310 309 309 308 308 307 306 306 305 305 305 304 304 303 302 301 299 298 296 294 293 292 291 291 291 290 290 290 290 290 289 289 289 289 289 289 289 289 289 289 289
304 304 305 305 305 305 306 308 309 311 313 315 317 318 319 320 321 321 321 321 321 321 320 320 320 319 318 318 317 316 315 315 314 314 314 313 312 312 312 311 311 311 311 311 310 309 308 307 307 306 305 305 304 303 303 303 302 301 299 297 296 294 292 291 291 290 290 290 290 290 290 289 289 289 289 289 289 289 289 289 289 289 289 289 289
304 304 304 305 305 307 309 310 311 312 312 313 315 316 317 318 319 320 321 321 321 320 320 320 319 318 317 316 315 314 314 314 313 313 312 312 311 311 311 310 310 310 309 310 310 309 307 306 306 305 305 303 302 301 300 299 298 296 295 293 292 291 290 290 290 290 290 290 290 289 289 289 289 289 289 289 289 289 289 289 289 289 289 289 288
303 303 304 304 305 307 309 310 311 312 312 312 313 314 315 316 317 318 319 319 319 319 319 318 317 316 315 314 313 313 313 312 312 311 311 311 310 309 309 309 308 308 308 308 309 308 307 305 305 304 303 302 300 297 296 295 293 292 291 290 290 289 289 289 289 289 289 289 289 289 289 289 289 289 289 289 289 289 289 289 289 289 288 288 288
303 303 303 304 305 306 307 309 310 311 311 311 312 312 313 314 314 315 316 317 317 317 317 316 315 314 313 312 312 312 311 311 310 310 310 309 308 308 307 307 306 306 306 306 306 307 306 305 304 303 301 299 296 293 291 291 290 289 289 289 289 289 289 289 289 289 289 289 289 289 289 289 289 289 289 289 289 289 289 289 288 288 288 288 288
302 303 303 304 305 306 306 308 309 309 310 310 311 311 311 311 312 313 313 314 315 316 315 314 313 312 312 312 311 311 310 310 309 308 308 307 306 306 306 305 305 305 305 305 305 305 305 304 302 301 298 295 292 290 289 289 289 289 289 289 289 289 289 289 289 289 289 289 289 289 289 289 289 289 289 288 288 288 288 288 288 288 288 288 288
301 302 303 304 304 306 307 307 308 309 309 309 310 310 310 310 310 311 311 313 314 314 313 312 312 312 311 311 310 310 309 308 307 306 306 305 305 304 304 303 302 302 302 302 303 302 303 303 301 298 294 291 289 288 288 288 288 288 288 289 289 289 289 289 289 289 289 289 289 289 288 288 288 288 288 288 288 288 288 288 288 288 288 288 287
300 301 302 303 304 305 306 307 307 308 308 308 308 308 308 309 309 309 310 311 312 311 311 311 311 311 310 309 309 309 308 307 306 305 304 304 303 302 301 300 300 299 299 299 299 299 299 300 298 294 291 289 288 288 288 288 288 288 288 289 289 289 289 288 288 288 288 288 288 288 288 288 288 288 288 288 288 288 288 288 288 287 287 287 287
299 300 300 302 303 304 305 306 306 306 307 307 307 307 307 307 308 309 309 309 310 310 310 310 310 310 309 309 308 307 306 305 304 304 303 302 301 300 300 299 298 298 297 296 296 296 296 296 296 292 289 288 288 288 288 288 288 288 288 288 289 289 289 288 288 288 288 288 288 288 288 288 288 288 288 288 288 287 288 287 287 287 287 287 287
298 299 299 300 301 302 304 304 305 305 305 305 305 305 305 306 307 307 308 308 308 309 309 309 309 308 308 308 307 306 305 304 303 302 301 300 300 299 299 298 297 296 295 295 294 294 294 293 292 290 288 288 288 288 288 288 288 288 288 288 288 288 288 288 288 288 288 288 288 288 288 288 288 288 288 287 287 287 287 287 287 287 287 287 287
296 297 298 298 299 300 301 303 303 304 304 304 304 304 304 305 306 306 307 307 308 308 308 308 308 308 307 307 306 305 304 303 302 301 301 300 299 299 298 297 296 294 293 293 292 292 291 291 290 289 288 288 288 288 288 288 288 288 288 288 288 288 288 288 288 288 288 288 288 288 288 287 287 287 287 287 287 287 287 287 287 286 286 286 286
295 296 297 297 297 298 299 300 301 301 302 303 303 303 303 304 304 305 306 306 307 307 307 308 307 307 306 305 304 304 303 302 301 300 300 299 298 297 296 295 294 293 292 291 291 290 289 289 289 288 288 288 288 288 288 288 288 288 288 288 288 288 288 288 288 288 288 288 288 288 288 287 287 287 287 287 287 287 287 286 286 286 286 286 286
293 295 296 296 296 296 297 298 299 300 300 301 302 302 303 303 303 304 305 305 306 306 306 306 306 306 305 304 303 303 302 301 299 298 297 296 295 294 293 292 292 291 290 290 289 289 288 288 288 288 288 288 288 288 288 288 288 288 288 288 288 287 287 287 288 288 288 288 287 287 288 287 287 287 287 286 286 286 286 286 286 286 286 286 286
292 293 294 295 295 294 295 296 297 298 299 300 301 301 302 302 303 303 303 304 305 305 305 305 305 304 303 303 302 301 300 299 298 296 295 294 293 292 291 290 290 289 289 289 289 288 288 288 288 288 288 288 288 288 288 288 288 287 287 287 287 287 287 287 287 288 288 288 287 287 287 287 286 286 286 286 286 286 286 286 286 286 286 286 285
292 292 293 293 294 294 294 295 296 297 298 299 300 300 301 301 302 302 303 303 303 303 303 303 303 302 302 301 301 300 299 298 296 295 294 293 292 290 290 289 288 288 288 288 288 288 288 288 288 288 287 288 288 287 287 287 287 287 287 287 287 287 287 287 287 287 287 287 286 286 286 286 286 286 286 286 286 286 286 286 285 285 285 285 285
291 291 292 292 293 293 293 294 295 296 297 298 298 299 300 300 301 301 301 302 302 302 302 302 301 301 301 301 300 300 298 296 294 293 292 292 290 289 288 288 287 287 287 287 287 287 287 287 287 287 287 287 287 287 287 287 286 286 286 286 286 286 286 286 286 286 286 285 285 285 286 286 286 286 286 287 286 286 286 286 285 285 285 285 285
290 291 291 292 292 292 292 293 294 295 296 297 297 298 299 299 300 300 300 300 301 301 301 300 300 300 300 300 299 298 295 293 292 291 290 289 288 288 287 287 287 287 287 287 287 287 287 287 287 287 287 287 287 286 286 286 286 286 286 286 286 285 285 285 285 285 285 285 285 285 285 286 286 287 287 287 286 286 286 286 285 285 285 285 285
289 290 290 291 292 292 292 292 293 294 294 296 296 297 298 298 299 299 299 299 299 299 299 299 299 299 298 298 296 294 292 290 289 288 287 287 287 287 287 287 287 286 286 286 286 286 287 287 287 287 286 286 286 286 286 286 286 286 285 285 285 285 285 284 284 284 284 284 285 285 285 285 286 286 287 287 287 286 286 286 285 285 285 285 284
288 288 289 290 291 291 291 291 292 293 294 294 295 296 297 297 297 298 297 297 298 298 298 298 298 297 295 293 292 290 289 288 287 286 286 286 286 286 286 286 286 286 286 286 286 286 286 286 286 286 286 286 286 285 285 285 285 285 285 285 285 285 284 284 283 284 284 285 284 284 285 285 286 286 287 287 287 287 286 286 286 285 285 284 284
286 287 288 288 290 290 290 291 291 292 293 294 294 295 296 296 296 296 296 296 296 296 296 296 295 293 291 289 288 288 287 286 286 286 285 286 286 286 286 286 286 286 286 286 286 285 285 285 285 285 285 285 285 285 285 285 285 284 284 284 284 284 284 284 284 284 284 284 284 284 284 285 285 286 287 287 287 287 287 286 286 285 285 284 284
285 285 286 287 288 289 290 290 291 291 292 293 293 294 294 295 295 295 295 295 295 295 295 294 292 290 288 287 286 286 286 285 285 285 285 285 285 285 285 285 285 285 285 285 285 285 285 285 285 285 284 284 284 284 284 284 284 284 284 284 284 283 284 284 283 283 284 284 284 284 283 284 285 285 286 287 287 287 287 286 286 285 284 284 284
283 284 285 286 287 288 289 290 290 291 291 292 293 293 293 294 294 293 293 294 294 293 293 292 289 287 286 285 285 285 285 285 285 285 284 284 284 284 284 285 285 285 284 284 284 284 284 284 284 284 284 284 284 284 284 283 283 283 283 283 283 283 283 283 283 283 283 283 284 283 283 283 284 283 284 285 286 287 287 286 285 284 284 284 283
Wind_Speed
24 24 24 24 24 23 21 20 19 18 17 15 14 13 12 11 10 8 8 8 8 10 12 15 17 19 22 23 24 24 24 24 23 22 21 21 20 20 19 18 17 15 14 12 11 11 11 12 12 12 12 12 12 12 11 11 11 10 11 11 11 11 12 13 14 14 14 13 13 13 14 15 16 16 16 17 17 18 19 19 20 20 21 23 24
25 24 25 25 25 25 24 23 22 20 19 18 16 16 15 14 13 10 9 9 9 10 11 13 14 15 17 18 20 21 22 22 22 22 21 21 20 18 17 16 16 14 13 12 11 11 11 12 11 12 12 12 11 11 12 12 12 11 11 11 11 12 13 14 14 14 13 13 14 14 14 15 16 16 17 18 19 19 19 20 21 22 24 25 25
27 27 26 26 26 26 26 26 25 23 22 21 19 18 17 17 15 13 12 10 10 10 11 11 11 12 12 13 14 16 18 19 20 20 20 19 18 17 16 15 14 13 12 11 10 10 11 11 11 11 11 11 11 11 11 11 12 12 12 12 13 13 14 13 13 13 14 14 14 14 14 16 17 18 19 20 20 20 21 22 23 25 26 25 24
30 30 29 28 27 26 26 27 26 25 24 23 22 21 20 19 18 17 15 13 12 11 11 10 8 7 7 7 8 9 11 13 14 15 15 15 15 14 14 13 12 11 10 9 9 10 11 11 11 11 10 10 10 10 10 11 11 11 12 13 14 13 13 13 13 15 15 14 14 15 16 17 19 20 20 21 21 22 24 25 25 26 26 24 23
31 32 31 31 30 29 28 27 26 25 24 26 26 24 23 22 21 20 19 16 13 12 12 11 9 7 6 5 5 5 5 6 6 8 9 10 10 10 10 11 10 10 9 10 10 11 11 11 11 11 11 11 11 11 11 11 11 12 13 15 14 13 13 13 14 15 15 15 15 16 17 19 20 20 20 21 23 25 25 26 25 24 24 23 23
30 31 32 32 32 32 30 28 26 25 24 27 29 27 26 24 23 23 22 19 15 13 13 12 10 8 8 7 7 6 5 5 4 5 7 8 9 9 9 10 10 10 11 11 12 12 11 11 11 12 12 12 12 11 11 12 13 14 14 15 15 14 14 15 16 16 16 16 16 17 18 18 18 19 20 22 24 25 25 24 23 23 23 23 23
28 29 31 32 33 33 32 30 28 26 26 27 26 25 26 27 27 26 25 21 16 15 14 13 12 10 9 9 8 7 6 6 6 7 9 11 11 11 11 11 12 12 12 12 12 11 11 12 13 13 13 13 12 12 12 13 14 15 15 15 15 16 16 16 17 16 15 15 15 15 16 17 17 19 21 23 24 25 24 23 23 23 25 26 26
30 31 31 33 34 35 34 32 30 29 29 28 26 24 26 28 29 30 28 23 18 17 16 14 12 10 10 10 9 8 8 8 9 10 11 13 14 14 14 13 13 13 13 13 12 12 12 13 14 14 14 13 12 12 13 14 15 16 16 16 16 17 17 16 13 12 12 12 13 14 16 17 18 20 22 24 25 25 25 24 24 25 27 28 28
29 31 33 34 36 36 35 33 32 31 30 29 28 26 27 27 28 32 29 22 19 18 17 14 12 10 10 10 9 9 10 10 11 12 13 15 16 17 17 16 15 15 15 14 13 13 13 14 15 15 14 14 13 13 14 14 16 17 16 16 16 16 16 13 11 11 12 12 13 15 16 18 20 21 23 24 26 27 27 26 26 26 27 28 28
25 27 29 31 34 36 35 33 31 31 31 29 28 27 27 27 28 31 30 23 19 20 19 15 12 12 11 11 11 11 11 12 12 13 15 16 17 18 18 18 17 17 16 16 14 14 14 15 15 15 15 15 14 14 15 15 16 17 16 16 17 16 14 12 11 12 12 12 14 16 18 20 21 22 24 25 26 27 27 26 26 26 27 27 27
22 23 25 29 32 36 36 33 31 30 30 27 27 27 28 28 29 30 30 24 21 21 20 17 15 14 14 13 14 14 14 15 16 16 16 17 17 18 18 19 19 18 17 17 16 16 16 16 15 16 16 15 15 15 15 15 16 16 17 18 18 17 14 12 12 13 13 13 15 18 20 21 22 23 24 25 26 27 27 26 26 26 26 26 27
22 19 20 23 26 29 29 28 28 28 27 26 26 26 28 29 30 32 33 27 22 21 20 19 18 17 16 16 17 17 16 17 18 18 17 17 17 17 18 19 20 19 19 18 18 18 17 17 17 17 17 16 16 15 15 15 15 16 18 19 19 17 15 14 14 14 14 15 17 19 20 21 23 24 24 25 26 26 27 26 26 26 26 26 27
22 20 17 16 15 17 18 21 24 25 25 25 25 24 28 29 31 34 33 27 22 21 21 22 23 21 20 20 20 18 18 19 20 19 18 18 18 18 19 20 21 21 21 20 19 20 19 19 19 19 19 17 16 15 15 15 15 17 19 20 19 17 16 16 16 16 16 17 18 20 20 21 23 24 25 26 26 26 26 25 26 26 26 27 29
15 18 18 16 16 16 17 19 22 23 24 25 25 25 27 28 29 31 30 29 25 23 23 24 25 24 22 21 20 19 19 20 20 21 21 20 19 19 19 19 20 21 21 21 21 21 21 21 21 21 20 18 16 16 16 16 16 15 17 19 18 15 14 16 16 15 16 16 17 18 19 21 23 24 25 25 24 24 25 25 25 26 27 28 29
11 13 12 13 14 14 16 19 21 24 25 26 27 26 27 27 26 27 30 32 28 25 26 27 26 25 22 22 21 20 19 18 19 20 19 18 17 17 17 17 18 19 19 19 20 20 21 21 22 21 21 18 17 16 16 16 17 17 17 17 16 13 12 14 14 13 14 15 15 17 19 21 22 22 23 23 23 23 23 24 26 27 28 29 30
12 13 12 11 11 11 13 14 17 21 25 29 29 26 25 25 26 27 30 33 31 29 29 27 27 25 23 22 20 18 18 16 15 15 14 13 13 13 13 14 15 16 17 17 17 18 18 20 20 21 21 20 18 17 16 16 16 18 20 19 16 14 14 14 13 13 15 16 16 17 19 20 20 21 21 21 21 22 23 24 25 27 28 29 30
14 13 12 13 14 15 16 14 15 16 18 24 27 25 24 26 27 28 31 34 33 32 31 30 30 29 26 23 18 16 19 17 13 11 10 10 10 11 11 12 13 13 14 14 15 16 17 17 18 19 20 20 19 17 16 17 17 19 21 20 18 17 17 16 14 13 15 16 16 17 18 18 19 19 19 20 20 22 23 24 25 26 28 29 30
15 16 14 14 15 17 17 16 16 15 12 15 18 18 19 20 21 23 29 36 37 35 33 31 30 29 30 29 24 22 21 18 15 11 9 9 9 9 10 11 11 12 12 14 15 16 17 18 18 18 19 19 19 17 16 16 19 21 20 18 18 17 16 16 14 12 12 14 15 16 16 17 18 18 19 20 21 22 23 25 26 27 29 30 32
16 17 17 17 18 17 16 15 15 16 14 14 15 14 14 13 14 16 21 30 35 36 35 33 32 32 31 30 31 30 25 21 20 16 11 9 9 9 10 10 11 11 12 13 14 16 17 17 17 17 17 17 17 17 16 16 19 21 19 17 15 13 10 9 10 11 11 12 13 14 15 16 17 18 19 21 22 24 26 27 29 30 31 32 32
18 17 19 20 20 18 16 16 16 16 16 16 16 15 14 12 12 14 15 19 21 21 22 22 24 28 29 31 31 30 27 25 24 21 15 11 10 9 9 9 10 11 10 10 10 10 11 12 13 14 14 15 15 16 16 18 18 15 13 11 9 5 4 5 8 10 12 13 14 14 15 16 18 19 21 23 25 27 29 30 31 32 32 31 31
19 18 20 21 21 19 18 19 19 18 17 18 17 16 17 15 12 13 14 14 14 14 13 12 13 16 19 26 31 30 27 23 21 19 16 13 12 12 10 9 9 7 7 6 5 5 6 6 7 8 9 10 10 11 11 12 11 8 4 4 5 6 7 9 10 12 13 15 16 17 18 19 21 23 24 26 28 30 30 31 31 31 30 30 30
20 19 20 20 21 20 19 19 20 21 21 22 22 21 20 16 11 11 13 12 12 12 13 12 13 15 17 21 27 27 22 16 14 14 15 14 13 12 11 9 8 6 5 5 5 5 4 4 3 3 3 4 4 4 4 4 5 6 8 10 10 11 11 11 13 14 16 17 19 21 22 23 25 26 27 28 29 29 29 29 29 28 28 28 27
18 19 19 19 21 21 21 21 20 21 22 25 27 26 22 16 12 13 15 13 12 11 11 10 10 13 12 13 15 14 10 12 13 13 14 14 13 12 12 10 8 7 8 9 8 7 7 6 5 4 4 4 5 6 7 9 11 13 14 14 14 13 12 13 15 16 18 20 21 23 25 26 27 28 29 29 28 27 26 25 25 25 24 24 24
17 18 18 18 20 21 21 22 21 21 23 25 29 28 23 18 16 18 17 14 13 13 11 7 8 12 9 7 9 10 12 15 14 12 12 14 13 14 15 13 11 10 10 11 10 9 9 9 9 9 10 11 12 12 13 13 14 15 15 14 14 14 14 15 17 18 19 20 21 23 24 26 27 27 27 26 25 23 21 21 20 20 20 21 21
16 18 18 18 20 20 21 22 22 21 19 20 24 28 26 20 20 20 17 15 14 14 13 9 10 12 11 10 11 12 14 14 13 11 10 12 14 14 16 15 13 13 13 12 12 12 12 12 12 13 13 14 14 14 14 14 14 14 13 13 14 14 15 15 16 17 19 20 22 23 23 24 24 23 22 21 19 18 17 17 17 18 18 19 20
16 16 17 19 20 20 21 21 21 20 18 16 18 24 28 24 22 23 19 16 15 16 18 16 13 12 13 16 15 13 14 16 14 13 12 13 15 16 17 16 13 12 14 15 14 14 14 14 14 14 14 14 13 13 13 13 13 12 13 13 13 14 14 15 16 17 19 19 19 19 19 19 19 18 17 16 15 15 15 16 16 17 18 19 20
16 16 16 18 19 20 21 22 21 19 18 17 16 21 27 28 27 25 20 18 18 18 18 18 15 13 13 17 18 15 15 17 17 15 15 15 16 17 18 17 14 13 15 17 17 17 16 16 15 14 13 12 12 11 11 11 11 11 12 13 14 15 15 16 16 16 15 14 13 13 13 13 13 12 12 12 12 13 13 14 15 16 17 18 19
17 17 17 17 18 19 20 21 21 20 18 17 16 19 25 30 31 27 22 21 21 21 20 20 20 17 15 17 19 18 17 17 18 18 18 19 20 20 20 19 17 17 18 18 19 19 19 17 15 13 12 11 11 10 10 10 10 11 12 14 15 15 15 14 13 12 10 9 9 8 8 8 8 8 9 9 10 12 13 14 15 16 17 18 19
16 17 18 18 17 18 19 19 20 20 19 18 17 16 19 24 29 27 24 25 24 23 23 23 25 25 21 20 21 20 19 19 20 21 21 22 23 23 21 20 20 19 20 20 20 20 20 18 15 14 12 11 10 10 10 10 10 11 12 13 13 13 12 11 9 8 7 6 5 5 5 5 6 7 8 9 10 12 13 14 15 16 17 18 19
15 15 16 16 17 18 18 18 18 18 19 19 18 17 17 20 24 25 25 26 26 26 25 25 28 29 26 24 24 23 23 23 24 24 24 24 25 24 23 22 21 21 21 21 20 20 19 17 15 14 12 10 9 9 10 10 10 10 11 11 11 9 8 6 5 4 3 3 3 3 4 5 6 7 8 9 10 12 13 14 15 16 17 18 19
13 14 14 14 15 16 16 16 16 16 17 17 17 17 17 18 21 23 24 25 26 27 26 27 30 30 28 27 27 26 26 26 25 25 25 25 25 24 23 23 22 21 21 21 21 19 18 17 15 13 11 9 8 8 9 9 9 8 8 7 6 5 3 2 2 2 2 2 2 3 4 5 6 6 7 9 10 12 13 14 15 16 17 18 19
13 14 14 14 14 14 14 13 13 13 14 15 15 15 17 19 21 22 24 25 26 26 27 29 31 30 29 28 27 26 25 25 25 25 24 24 23 23 21 20 20 20 20 22 22 19 17 16 15 13 10 8 7 7 8 7 6 5 4 3 2 0 1 2 2 2 1 2 2 3 4 4 5 6 7 9 10 12 13 14 15 17 18 19 20
13 14 13 13 13 13 14 13 13 13 14 15 15 15 16 18 21 23 25 26 26 26 27 29 30 30 29 27 25 24 24 24 23 23 22 21 20 19 18 17 17 17 18 20 20 19 17 16 15 13 10 8 7 6 6 5 3 2 2 2 3 3 3 2 2 2 1 2 2 3 4 4 5 6 8 9 11 12 13 15 16 18 19 20 21
12 13 13 12 12 13 14 14 14 13 14 14 15 15 15 17 19 22 24 24 24 25 27 28 29 28 27 25 24 23 23 22 22 21 19 18 17 15 15 15 15 16 16 17 17 17 16 15 14 12 10 7 6 5 5 4 4 4 5 5 5 5 4 3 3 2 1 1 2 3 4 5 6 7 8 10 12 13 15 16 18 20 21 22 23
11 12 12 12 11 12 13 14 14 14 14 14 14 15 15 16 18 22 24 24 23 25 27 27 27 26 25 23 23 22 22 21 20 18 17 16 14 14 14 14 14 15 15 16 16 15 15 15 13 11 9 7 7 7 7 7 7 7 7 7 7 6 4 3 3 2 1 1 3 4 5 6 6 8 10 11 13 15 16 18 20 21 23 24 25
12 11 11 11 11 11 12 12 13 13 14 14 14 15 16 17 18 22 25 25 25 26 26 26 25 24 23 23 22 22 21 19 18 17 15 15 14 13 13 13 13 13 14 14 14 13 14 14 13 11 10 9 9 11 10 9 8 8 8 8 7 6 4 3 2 2 2 2 3 4 5 7 8 9 11 13 14 16 17 19 21 22 23 24 26
14 12 11 11 11 11 12 12 12 12 13 13 14 15 17 18 19 21 24 25 26 27 26 25 23 22 22 22 21 20 19 18 17 16 15 14 13 12 12 12 11 12 12 12 12 11 12 12 13 12 12 11 12 13 12 11 9 8 8 7 7 6 4 3 2 2 2 2 3 5 6 7 9 10 12 14 15 16 18 20 21 22 24 25 27
16 13 12 12 12 12 12 12 11 11 12 13 14 15 17 19 20 22 23 25 26 26 25 24 22 21 21 21 20 19 18 17 16 15 14 13 12 12 11 11 11 11 11 12 12 12 12 12 13 13 14 14 14 13 12 12 10 9 8 7 6 6 5 4 3 1 1 1 2 4 6 7 9 11 12 14 16 17 18 20 21 23 24 26 28
18 15 13 12 12 12 12 13 12 12 12 13 14 15 17 19 21 23 25 26 26 25 24 23 22 22 21 21 20 19 17 16 15 14 13 12 12 11 11 11 10 11 11 12 13 13 13 14 14 15 16 16 14 13 13 13 11 10 9 8 6 5 4 4 3 1 1 2 3 4 6 8 10 11 13 15 16 17 19 20 22 23 25 27 28
21 18 14 13 13 12 12 13 12 12 12 13 14 16 18 20 22 24 26 27 27 26 24 23 22 22 21 21 20 19 18 17 16 14 13 12 12 12 11 11 10 10 11 12 14 14 15 15 16 17 17 16 14 13 12 12 12 10 8 8 7 4 2 3 3 2 2 4 5 5 6 8 10 11 13 15 16 18 20 21 22 24 25 27 29
22 20 16 14 13 13 12 12 12 12 13 13 15 16 19 21 22 24 26 27 27 26 25 24 23 23 22 21 20 19 18 18 16 14 13 12 12 11 11 11 10 11 12 14 15 16 17 17 18 18 16 15 14 13 11 10 11 10 6 5 5 3 4 4 4 4 3 4 6 7 8 9 11 12 14 16 18 19 21 22 23 25 26 28 29
23 22 19 16 14 13 12 11 12 13 14 14 15 17 19 21 23 24 25 26 27 26 25 24 24 23 22 21 20 19 18 17 15 13 12 12 11 10 10 11 11 12 14 16 17 17 17 18 17 17 15 13 13 12 11 9 8 8 5 3 3 2 4 6 7 7 6 5 6 9 12 12 13 14 16 18 19 21 23 23 24 26 27 28 29
23 22 21 18 14 14 14 13 13 14 14 15 16 17 20 21 23 24 25 25 26 25 23 22 22 22 22 21 20 19 17 16 14 13 13 12 12 12 12 13 14 14 15 17 18 18 17 16 16 16 14 13 11 11 11 9 6 5 4 3 3 3 4 6 8 10 10 9 9 11 14 16 16 17 18 19 20 22 24 25 25 26 27 28 30
22 23 22 20 16 15 16 15 14 15 16 16 17 19 20 21 23 24 24 25 24 24 23 21 20 21 21 21 20 19 18 17 16 16 16 15 15 16 17 19 19 18 17 16 17 17 16 15 15 15 14 12 11 9 9 7 5 4 3 2 3 4 6 7 9 11 12 13 14 14 15 18 20 20 21 21 22 23 25 25 25 26 27 29 31
22 21 22 21 17 16 17 17 16 17 17 18 19 20 21 22 23 24 24 24 24 24 23 22 21 21 21 21 20 19 19 19 19 19 19 19 19 20 21 22 21 20 19 17 17 16 16 14 14 13 12 11 10 8 7 6 5 3 2 1 3 4 6 8 11 14 15 16 18 19 18 19 22 23 23 24 24 25 25 26 26 27 28 31 33
22 20 20 21 19 18 19 20 19 18 18 19 20 20 22 23 23 24 24 25 25 25 25 24 24 23 22 21 21 21 21 21 20 20 20 21 22 22 22 22 21 20 19 18 17 16 15 14 13 11 10 10 9 7 6 5 4 2 1 1 3 4 6 8 12 15 17 18 20 22 21 21 23 25 25 27 27 27 27 27 27 28 30 33 35
22 19 19 20 20 19 20 22 21 19 19 20 21 21 22 23 24 24 24 25 26 26 26 25 25 24 23 23 23 23 23 22 22 22 22 22 23 23 22 22 21 20 19 18 16 15 14 13 12 10 9 9 8 7 5 3 3 2 2 2 4 5 6 8 12 14 16 18 20 21 22 23 26 28 28 29 30 30 30 29 28 30 33 35 36
20 18 18 18 19 18 20 23 23 21 20 21 21 22 22 23 24 24 25 25 26 26 26 25 24 23 23 24 25 25 25 25 25 24 23 22 22 22 22 21 20 19 19 17 15 14 12 11 10 9 8 7 7 5 4 3 2 2 3 3 5 6 6 7 9 12 16 17 18 21 24 25 28 31 31 31 33 33 32 31 31 33 35 36 37
21 18 17 18 18 18 20 23 24 22 21 21 21 22 22 22 23 24 24 24 25 25 25 24 23 23 24 26 27 27 27 27 27 25 23 22 21 21 20 20 19 18 17 16 14 13 11 10 8 7 7 6 5 4 3 2 2 3 4 5 7 7 7 8 9 12 16 18 19 21 25 27 30 32 33 33 34 34 34 33 35 36 37 37 39
22 18 18 19 20 20 20 22 24 23 22 22 22 21 21 22 23 23 23 23 23 24 24 24 24 25 26 27 27 27 28 28 26 25 23 21 19 18 18 17 17 16 15 14 13 11 9 8 7 6 5 4 3 2 2 2 2 4 5 7 8 9 10 11 12 14 17 19 21 23 25 27 30 32 34 36 37 36 36 37 38 39 39 40 41
21 18 19 21 22 23 22 22 23 24 23 23 22 21 21 21 21 21 21 22 23 23 24 24 25 27 28 28 28 27 26 26 25 24 22 20 18 17 15 14 14 13 13 12 11 9 8 7 5 5 4 3 2 2 2 2 3 5 6 7 9 10 12 13 15 16 18 20 22 25 26 27 30 32 34 37 39 40 41 41 42 42 42 43 44
Wind_Direction
226 227 230 235 236 236 237 237 237 240 242 242 243 246 249 253 256 261 269 271 263 252 245 242 240 239 239 238 238 239 240 242 244 247 250 254 257 260 263 266 270 272 274 277 277 275 275 277 282 286 290 294 295 297 298 299 301 302 303 303 306 312 316 319 320 319 319 321 323 325 325 321 317 315 314 314 313 312 311 311 312 312 311 312 313
230 230 231 234 237 238 239 240 240 242 244 244 244 246 249 252 255 258 264 269 271 264 252 244 241 240 239 238 238 240 242 244 245 248 251 255 259 261 263 265 267 269 270 271 272 272 274 276 280 285 289 293 294 294 294 295 297 297 299 300 304 310 313 317 317 316 317 318 319 320 317 310 307 308 309 309 310 311 312 312 313 313 313 315 317
234 234 233 234 236 238 240 241 242 242 244 245 244 245 248 251 254 256 259 261 261 258 251 244 237 234 233 232 234 238 242 245 247 249 253 257 261 263 263 263 263 263 264 265 268 270 273 277 281 285 288 292 295 295 292 291 293 294 296 298 303 308 312 314 313 311 310 311 312 310 304 301 301 304 306 308 311 313 315 316 316 316 317 320 322
238 238 237 237 238 238 241 242 243 244 246 246 244 244 246 248 250 252 253 253 251 249 246 241 227 211 209 209 219 233 241 246 250 253 256 258 260 261 259 258 257 257 259 261 267 272 275 279 281 283 286 290 293 293 292 291 290 292 293 296 302 305 306 306 303 302 302 301 300 296 294 297 300 303 306 309 313 316 317 319 320 320 321 322 323
244 243 241 240 241 241 242 243 243 246 248 248 244 239 241 245 245 247 250 250 249 245 242 234 216 189 177 177 184 201 222 234 248 253 257 259 257 258 257 255 256 258 263 267 270 273 276 278 279 281 284 286 288 289 291 290 289 289 291 294 298 299 298 297 295 294 293 291 289 290 294 300 302 303 308 312 316 319 321 322 323 323 322 322 322
246 247 246 244 242 242 243 244 245 248 251 253 250 242 237 241 243 245 248 249 248 242 237 226 214 196 179 181 183 188 202 210 231 250 259 263 261 262 263 263 264 266 268 270 271 270 272 275 277 280 281 283 283 285 288 289 290 290 292 294 293 292 293 291 289 289 288 289 292 296 300 301 302 306 311 316 319 320 322 324 325 325 324 325 327
245 246 248 248 246 243 242 242 244 247 251 257 260 253 246 242 239 241 243 244 243 234 226 219 214 207 193 190 191 196 211 220 233 248 258 264 267 268 269 270 269 268 267 265 264 264 268 272 276 278 278 280 281 285 288 288 288 287 287 288 287 289 290 290 290 290 291 294 298 299 298 298 302 309 314 317 320 322 324 324 324 323 323 326 329
247 247 246 247 248 248 245 243 243 244 248 254 259 262 261 253 241 237 235 234 236 228 219 216 217 218 213 206 199 201 210 220 231 242 253 261 265 267 268 269 268 265 262 260 258 258 264 269 272 274 274 276 279 284 285 285 285 283 283 284 284 287 288 288 290 292 294 296 296 294 295 299 305 310 315 320 324 324 324 323 322 322 322 325 330
248 249 250 249 246 246 247 246 247 248 249 253 257 262 267 266 253 243 235 231 232 228 220 220 223 227 232 231 224 221 220 222 228 233 243 254 260 262 262 262 261 261 258 256 255 255 259 264 268 272 274 277 278 280 282 283 284 283 283 285 286 286 284 283 285 288 289 289 288 290 295 301 307 314 320 325 326 323 322 323 323 323 324 329 333
248 246 246 251 248 243 243 244 247 251 253 254 257 263 269 272 264 247 235 231 228 223 223 228 234 236 238 243 244 246 248 249 248 243 243 246 251 255 255 256 255 256 256 254 253 253 256 260 266 271 275 277 276 277 279 280 282 283 283 284 284 281 277 274 276 278 279 281 284 290 296 302 310 319 325 326 324 322 323 324 325 326 329 332 334
253 249 238 238 243 244 244 244 245 248 251 252 256 265 270 271 266 246 229 228 227 222 228 235 243 245 241 245 249 252 256 260 261 258 254 252 252 253 251 252 252 252 253 253 252 252 256 261 265 270 272 274 273 271 273 277 281 283 281 279 279 277 271 266 266 269 272 279 286 290 295 302 312 321 324 323 322 322 323 325 327 329 332 334 334
250 256 250 238 238 244 245 243 245 246 247 251 256 264 268 267 268 252 228 223 225 224 232 238 243 248 247 250 252 252 256 261 265 267 268 266 263 259 254 251 250 249 249 249 251 254 258 261 263 264 263 263 266 265 266 270 274 277 275 273 274 272 267 264 264 267 272 280 287 292 297 304 312 318 320 320 320 321 323 325 328 331 334 335 335
243 241 249 251 245 244 243 240 242 245 248 255 258 262 267 265 266 256 232 221 226 226 229 235 240 245 246 251 254 256 262 267 271 274 275 273 268 263 257 252 248 247 247 249 251 254 257 259 260 260 259 260 262 263 265 265 268 271 269 267 267 266 263 261 263 269 273 280 288 294 300 304 309 315 318 320 321 323 324 326 329 332 334 334 333
253 239 237 241 243 245 249 247 247 250 253 257 258 259 263 261 263 259 237 225 229 230 231 234 238 242 244 253 260 262 265 270 274 273 272 270 267 263 258 255 251 248 249 250 252 255 257 258 259 260 260 261 261 262 264 265 267 264 255 255 258 259 261 261 263 270 273 278 286 293 299 303 308 315 319 321 323 324 325 328 330 331 331 331 331
271 264 255 242 236 237 246 253 256 258 255 254 255 257 259 257 256 253 239 232 233 232 234 233 235 241 244 248 254 262 267 271 269 265 265 267 264 261 258 256 253 251 251 252 254 256 258 259 259 261 261 261 259 261 265 267 269 262 247 245 249 250 256 262 266 272 275 279 286 293 300 305 312 317 320 323 323 324 327 329 331 330 330 329 328
268 279 287 276 262 247 252 264 268 264 256 252 253 254 255 251 247 244 240 239 238 237 238 236 234 235 237 239 242 250 259 264 258 251 254 257 254 251 251 251 251 253 254 255 257 256 257 259 260 261 262 260 258 261 265 267 263 254 245 243 244 243 248 259 265 268 273 279 286 295 304 310 316 319 321 322 322 323 327 328 329 328 327 327 326
269 278 284 283 281 271 268 276 277 275 266 256 254 256 256 250 244 242 243 242 240 240 240 237 235 231 231 232 228 230 244 248 240 234 236 235 238 240 241 248 251 254 257 257 259 260 261 263 264 264 263 262 261 263 267 268 255 241 240 244 246 245 247 254 255 257 268 278 289 301 308 312 314 316 318 318 319 322 325 327 327 326 325 325 325
263 268 269 273 280 278 275 272 266 270 272 260 257 263 265 259 253 256 257 251 242 240 242 241 239 237 234 235 235 238 244 242 227 214 216 223 231 237 239 247 252 256 262 264 265 268 270 272 272 271 268 264 262 262 263 259 242 230 228 232 236 238 240 243 245 256 275 288 299 307 309 309 310 312 315 317 319 322 324 325 325 325 325 324 324
254 257 258 261 266 271 276 272 261 257 257 255 257 265 271 271 270 275 274 259 243 238 241 241 241 241 238 239 244 246 247 245 235 219 204 211 227 239 242 246 256 266 272 274 274 275 277 280 280 275 271 265 260 260 255 242 229 221 214 209 212 217 223 238 256 275 295 304 307 307 305 305 306 309 312 315 318 320 322 323 323 324 324 323 322
247 249 251 256 261 262 264 268 265 258 253 250 253 257 258 261 274 283 284 274 260 249 247 246 246 247 246 244 244 245 247 246 239 227 213 207 211 221 233 244 261 273 277 280 281 281 281 281 281 276 269 261 253 248 238 226 219 213 207 203 205 220 259 292 301 306 311 309 306 305 305 307 308 309 310 312 315 317 319 321 321 321 321 320 320
241 244 245 249 256 258 258 262 262 260 255 250 247 245 244 250 265 276 278 281 284 281 280 280 280 283 275 258 246 241 241 235 225 223 221 213 208 213 223 235 250 260 267 272 262 257 262 258 258 258 250 239 230 223 213 207 203 197 209 252 280 292 292 293 297 302 302 299 299 301 305 306 307 307 308 310 313 315 317 319 320 320 320 320 321
230 234 237 241 247 252 255 259 261 263 259 253 247 239 242 251 257 265 272 274 278 287 290 283 286 304 302 276 253 239 236 234 230 232 225 216 214 215 216 223 228 213 205 217 209 200 195 188 183 180 190 195 192 200 211 233 254 268 284 292 292 287 280 278 280 285 288 288 290 295 300 303 305 307 309 311 313 316 319 320 320 321 322 323 325
228 228 230 234 238 242 248 253 260 266 263 260 255 244 244 253 255 266 274 270 269 281 287 280 291 309 304 283 266 255 269 288 276 258 239 228 221 212 205 208 211 193 181 183 185 188 186 182 185 190 211 236 243 251 260 267 272 277 283 286 283 278 274 275 278 281 285 288 292 296 299 304 308 310 312 315 318 320 321 321 322 324 326 328 330
243 237 233 232 234 235 240 243 248 256 259 264 260 244 239 249 251 256 263 263 268 273 269 274 304 308 286 262 274 282 297 299 282 269 260 246 235 224 213 209 207 196 189 189 192 198 202 204 213 227 240 249 254 258 260 261 265 270 274 275 272 269 269 273 278 282 288 295 301 305 305 307 309 311 313 317 320 322 323 325 327 329 332 334 336
256 250 245 241 240 239 240 241 243 249 257 272 264 239 230 243 246 240 243 251 254 251 248 258 292 296 270 251 264 271 275 274 258 249 251 243 237 229 213 207 211 206 197 199 207 212 216 222 230 237 242 244 248 252 254 255 257 260 261 262 263 266 270 276 283 291 300 306 310 312 312 312 312 315 318 321 325 329 332 335 339 341 344 347 350
267 259 253 249 248 248 247 247 246 247 253 268 268 243 228 232 237 231 235 244 234 227 237 246 262 276 263 255 262 262 255 250 236 224 226 227 227 223 210 202 206 211 206 206 213 220 226 230 234 236 237 239 242 247 251 253 255 259 263 269 276 281 286 292 299 306 311 314 315 315 316 316 318 323 327 331 337 343 346 350 354 357 359 1 2
273 268 261 254 251 251 252 253 251 250 250 251 261 255 238 233 233 230 237 246 233 226 233 236 242 254 253 248 252 253 246 239 229 222 222 222 220 223 225 218 207 205 212 217 221 226 232 235 235 236 238 240 244 249 254 260 267 275 284 291 298 303 308 312 316 319 321 320 318 317 318 322 327 335 342 347 353 356 358 360 1 2 3 3 3
278 275 271 263 256 253 252 254 253 253 253 251 259 264 253 242 230 225 240 251 241 236 235 232 234 240 242 240 239 242 244 242 238 230 225 223 222 229 237 237 226 214 214 221 227 230 234 236 237 240 244 247 253 260 267 276 287 295 301 306 310 316 321 325 329 331 330 326 323 323 328 336 346 357 5 6 8 7 5 5 4 4 5 4 4
280 278 278 274 267 261 256 255 254 251 251 252 257 264 262 250 231 225 241 251 248 248 245 238 232 230 234 235 231 232 240 246 244 236 228 226 229 234 236 236 233 229 225 222 225 232 235 235 238 243 249 256 263 271 280 287 298 306 311 315 319 323 327 331 335 335 335 333 334 340 349 1 10 16 17 14 12 10 8 7 7 8 8 7 7
281 278 279 277 273 270 266 263 260 256 252 251 254 257 262 262 251 245 249 250 250 253 249 241 232 227 229 227 224 226 233 236 234 229 228 230 233 236 235 233 235 239 239 231 226 229 232 232 235 240 246 256 266 275 285 295 305 312 316 318 320 323 328 336 340 344 351 357 5 13 17 21 20 18 17 13 12 11 11 10 10 11 11 9 8
283 279 278 276 273 272 272 270 267 263 259 257 257 258 259 263 263 260 257 254 254 254 249 240 231 229 228 223 219 222 225 226 226 225 229 233 236 237 237 238 240 240 241 237 230 228 228 227 229 234 241 251 265 277 288 298 305 309 311 311 313 323 338 2 24 32 37 39 38 36 33 27 22 19 16 14 14 13 13 13 12 13 12 10 8
288 283 280 278 275 271 270 272 272 269 268 266 266 265 265 266 264 261 258 255 252 250 245 237 231 228 225 220 219 221 223 224 225 227 230 233 236 237 237 240 240 236 234 234 233 229 224 222 224 229 235 244 261 277 287 294 297 296 294 290 291 33 101 101 93 92 79 58 47 41 35 25 18 17 16 15 15 14 13 14 14 13 12 10 8
294 288 283 280 277 275 273 276 277 275 273 273 273 273 273 270 264 259 256 250 245 242 237 233 229 224 220 219 223 226 226 228 229 230 231 232 234 234 233 233 232 229 228 230 232 229 221 217 220 224 229 235 248 263 271 273 262 228 186 162 149 140 140 131 124 122 103 64 46 35 29 19 12 14 16 16 16 16 15 15 14 13 12 10 8
296 292 286 282 278 278 278 279 280 280 278 278 281 285 284 277 267 260 252 245 241 238 234 229 226 223 223 226 230 231 231 230 230 230 229 228 228 225 224 226 226 227 228 228 232 230 222 216 214 217 223 225 226 227 226 217 192 168 155 151 148 150 155 153 144 138 119 63 33 26 23 19 14 15 17 17 17 16 15 14 13 12 10 8 7
304 296 288 284 281 280 280 279 281 282 282 284 287 289 286 278 269 260 251 246 243 239 234 228 225 227 230 233 234 233 232 230 227 225 222 219 219 220 220 221 223 226 227 229 230 229 225 218 212 211 214 208 198 192 187 184 176 163 159 159 157 156 157 155 150 141 119 53 30 28 25 21 18 17 18 16 15 14 13 12 10 9 7 5 3
309 304 291 283 279 279 279 277 278 280 283 286 288 288 286 278 268 258 250 246 242 237 232 229 229 234 237 236 234 231 229 227 223 219 217 215 215 215 213 212 215 218 221 225 226 226 225 220 211 202 197 191 183 178 175 175 173 167 165 165 161 159 157 154 149 131 105 61 40 34 27 21 16 15 15 12 11 10 9 8 7 5 4 2 359
307 308 300 287 277 275 279 280 280 282 285 287 287 286 283 276 267 256 248 244 240 235 231 231 235 238 238 236 234 231 228 224 220 217 215 213 209 206 205 206 210 215 219 223 224 222 221 219 212 196 183 181 180 176 171 170 171 172 171 166 162 159 152 142 132 113 99 69 45 34 24 16 10 8 8 6 6 5 5 5 4 2 0 358 356
306 307 307 299 287 276 274 280 287 289 288 288 289 286 280 272 263 255 248 242 239 236 235 238 241 240 238 235 232 231 228 223 221 218 213 207 204 205 208 211 215 219 224 225 225 221 215 212 209 195 181 176 176 176 175 172 174 177 174 163 153 150 148 147 141 119 92 63 28 18 11 6 3 1 1 2 1 0 1 2 0 359 357 354 353
307 305 307 306 300 288 277 278 287 293 291 290 290 285 278 271 263 256 249 243 240 240 242 245 246 241 236 232 229 227 225 222 220 218 212 209 210 213 218 222 223 224 225 223 220 215 208 202 197 190 182 177 174 175 177 177 178 182 184 180 166 149 148 160 168 190 319 336 339 354 0 358 357 357 357 358 357 356 357 359 358 357 355 352 351
309 303 305 308 304 295 283 277 280 289 292 293 293 287 278 271 265 257 250 246 245 246 247 248 247 241 234 229 226 223 220 218 217 217 217 219 223 224 225 226 226 223 221 216 210 202 195 191 187 182 180 179 178 179 181 182 183 187 190 193 197 207 214 207 205 219 282 324 327 336 352 354 351 352 354 354 353 353 355 357 356 354 352 351 350
312 302 301 307 309 300 288 281 283 291 295 294 293 288 280 272 266 259 253 250 249 250 251 248 243 236 229 225 222 219 217 216 215 216 217 221 226 231 232 229 225 222 214 206 198 189 183 181 180 177 176 178 182 184 185 188 193 201 203 197 209 251 285 283 275 258 265 322 330 328 336 345 348 350 353 353 350 351 355 355 354 352 350 349 349
317 306 297 298 308 308 298 293 296 297 296 294 291 285 278 271 265 260 255 252 250 251 250 245 236 228 222 219 217 215 215 215 213 211 212 215 218 222 225 221 215 211 202 193 185 180 179 178 178 177 175 178 182 185 189 193 195 201 210 217 229 274 303 299 297 293 299 329 344 339 338 341 348 351 352 352 350 350 353 354 353 351 349 347 347
318 312 300 294 303 313 309 304 302 298 294 291 285 278 272 267 262 259 255 252 250 247 243 237 230 223 217 212 212 213 214 215 212 210 209 210 211 210 208 202 194 190 189 186 180 176 177 180 179 176 176 180 183 186 192 198 197 197 209 235 257 283 301 303 306 308 316 331 344 349 345 339 344 351 350 349 350 350 351 353 351 349 346 344 344
315 313 306 298 301 312 313 307 302 297 293 288 279 271 265 260 256 254 251 249 246 241 233 226 223 220 216 213 213 214 214 213 212 211 210 208 207 204 198 190 181 176 178 181 181 178 177 180 180 177 179 186 188 188 190 195 199 205 219 258 294 315 321 321 320 319 326 336 341 349 349 339 340 346 345 344 349 350 348 350 349 346 345 343 343
309 311 307 300 298 307 310 307 302 297 292 285 277 268 261 256 252 249 246 244 240 233 225 220 219 219 219 219 217 213 210 209 209 210 210 207 201 196 191 184 178 175 175 177 179 178 178 180 182 182 182 187 191 192 191 192 197 203 216 268 322 342 339 333 330 330 334 339 341 344 347 342 337 339 339 340 345 347 346 346 348 345 343 342 341
303 304 303 297 293 300 307 305 301 297 291 285 277 268 260 254 249 245 242 239 234 227 221 219 220 221 220 219 217 212 206 203 203 204 202 199 193 187 183 180 177 175 175 176 178 179 180 182 186 189 186 185 192 197 193 192 202 219 231 294 337 350 349 342 338 335 334 338 341 340 341 339 335 334 337 337 340 343 343 344 346 344 342 341 341
295 296 296 293 288 292 301 301 296 292 288 281 274 267 260 254 248 243 237 233 229 224 221 220 222 222 217 213 210 204 198 195 193 192 192 190 187 182 180 179 177 176 175 175 177 179 182 184 186 189 186 184 192 199 198 199 214 250 275 316 333 343 358 352 339 332 330 335 339 337 335 337 335 334 335 335 336 338 340 342 344 344 343 341 340
286 287 287 286 283 285 294 295 290 286 282 276 271 265 259 252 246 240 234 230 227 224 222 221 220 217 210 203 198 194 190 187 184 183 184 185 183 182 180 179 178 178 176 176 178 179 181 184 185 185 185 183 188 193 202 219 246 280 302 327 335 341 358 352 333 325 326 331 338 338 336 338 337 333 331 332 332 332 335 338 341 342 342 340 338
278 278 278 279 279 281 286 286 283 279 275 271 268 263 257 251 244 238 233 229 226 224 221 218 212 206 200 195 190 187 185 182 179 177 177 179 180 180 180 179 178 177 176 176 177 177 179 182 183 183 183 184 185 191 207 245 288 306 323 335 336 338 344 343 336 332 330 334 341 342 339 338 337 333 329 327 327 328 331 334 337 339 340 338 336
269 270 273 274 274 273 274 274 273 270 266 265 265 260 254 247 241 236 233 230 227 224 220 213 203 196 191 187 184 183 181 178 175 173 171 173 175 176 178 179 176 173 174 173 172 173 176 179 183 186 188 190 193 203 233 275 302 316 329 334 334 338 342 342 344 342 337 339 342 343 341 339 337 335 332 326 324 325 329 332 334 337 338 337 335
262 262 266 268 267 265 264 263 262 260 257 257 257 253 245 239 235 232 232 233 229 224 217 209 198 188 181 177 178 180 180 177 173 171 169 169 171 173 175 176 175 173 173 171 169 172 176 180 188 192 198 214 225 242 274 296 309 319 330 334 335 340 343 343 345 346 344 342 341 340 341 341 339 339 338 334 328 325 326 330 333 336 337 337 336